Regional Weather Roundup
Issued by NWS

Home | Current Version | Previous Version | Text Only | Print | Product List | Glossary Off
Versions: 1 2 3 4 5 6 7 8 9 10 11 12 13 14 15 16 17 18 19 20 21 22 23 24 25 26 27 28 29 30 31 32 33 34 35 36 37 38 39 40 41 42 43 44 45 46 47 48 49 50

000
ASUS43 KMKX 052111
RWRWI

WISCONSIN REGIONAL WEATHER ROUNDUP
NATIONAL WEATHER SERVICE MILWAUKEE/SULLIVAN WI
300 PM CST MON DEC 05 2016

NOTE: "FAIR" INDICATES FEW OR NO CLOUDS BELOW 12,000 FEET WITH NO
SIGNIFICANT WEATHER AND/OR OBSTRUCTIONS TO VISIBILITY.

WIZ001-002-006>008-014>016-023>028-052200-
NORTHWEST WISCONSIN

CITY           SKY/WX    TMP DP  RH WIND       PRES   REMARKS
SUPERIOR ARPT  CLOUDY    36  31  82 E12       29.75F WCI  28
ASHLAND        PTCLDY    38  31  76 MISG      29.79R
HAYWARD        CLOUDY    33  28  81 VRB7      29.77R WCI  27
SIREN          LGT SNOW  33  32  96 E6        29.72F WCI  27
CUMBERLAND     CLOUDY    32  32 100 SE10      29.74F FOG     WCI  24
RICE LAKE      CLOUDY    32  32  99 SE13      29.78F FOG     WCI  23
CHETEK         CLOUDY    32  32 100 E8        29.78S FOG     WCI  25
LADYSMITH      CLOUDY    34  32  93 SE7       29.83R WCI  28
EAU CLAIRE     CLOUDY    36  33  89 SE10      29.79S WCI  28
MENOMONIE      CLOUDY    35  35 100 E9        29.78S FOG     WCI  27
NEW RICHMOND   CLOUDY    36  33  88 SE12G18   29.71F WCI  27
OSCEOLA        CLOUDY    36  36 100 SE15      29.72F WCI  26
$$

WIZ003>005-009-010-017-018-052200-
NORTH CENTRAL WISCONSIN

CITY           SKY/WX    TMP DP  RH WIND       PRES   REMARKS
MANITOWISH WTR CLEAR     36  31  82 SE7       29.79R WCI  30
ARBOR VITAE    PTCLDY    38  32  77 SE3       29.79S
WOODRUFF       PTCLDY    38  32  77 SE3       29.79S
RHINELANDER    PTCLDY    37  29  72 SE5       29.81S WCI  33
EAGLE RIVER    CLEAR     38  28  65 SE3       29.81R
LAND O LAKES   CLEAR     38  30  70 CALM      29.82S
PHILLIPS       CLOUDY    35  31  84 S8        29.80R WCI  28
TOMAHAWK       CLOUDY    33  29  88 SE3       29.82R
MEDFORD        CLOUDY    32  30  94 SE7       29.82R FOG     WCI  25
MERRILL        CLOUDY    34  32  90 S3        29.85R
$$

WIZ029-030-035-036-043>047-052200-
CENTRAL WISCONSIN

CITY           SKY/WX    TMP DP  RH WIND       PRES   REMARKS
WAUSAU         CLOUDY    33  30  88 SE8       29.85R WCI  26
MOSINEE        CLOUDY    32  32 100 SE9       29.87R FOG     WCI  24
MARSHFIELD     CLOUDY    33  31  92 S12       29.84R FOG     WCI  24
STEVENS POINT  CLOUDY    32  32  99 S6        29.88R FOG     WCI  26
WAUPACA        CLOUDY    35  32  88 S8        29.91R FOG     WCI  29
WAUTOMA        CLOUDY    34  32  92 S9        29.92R WCI  27
WISC RAPIDS    CLOUDY    34  33  96 S8        29.88R FOG     WCI  27
CAMP DOUGLAS   CLOUDY    36  32  87 SE8       29.88R WCI  29
$$

WIZ011>013-019>022-031-037>040-048>050-052200-
NORTHEAST WISCONSIN

CITY           SKY/WX    TMP DP  RH WIND       PRES   REMARKS
ANTIGO         CLOUDY    33  31  91 S10       29.86R WCI  25
SHAWANO        CLOUDY    35  32  88 S3        29.91R
OCONTO         CLOUDY    35  31  84 S5        29.92R WCI  31
STURGEON BAY   MOCLDY    35  30  82 S8        29.93R WCI  29
GREEN BAY      CLOUDY    36  33  89 S10       29.92F WCI  28
MANITOWOC      CLOUDY    34  31  88 S8        29.95F WCI  27
APPLETON       CLOUDY    34  34 100 S8        29.90S FOG     WCI  27
CLINTONVILLE   CLOUDY    32  32 100 S10       29.91R FOG     WCI  24
OSHKOSH        CLOUDY    33  31  92 S10       29.93R FOG     WCI  25
$$

WIZ032>034-041-042-053>061-052200-
SOUTHWEST WISCONSIN

CITY           SKY/WX    TMP DP  RH WIND       PRES   REMARKS
LA CROSSE      CLOUDY    39  33  79 S12       29.84S WCI  32
SPARTA         CLOUDY    36  33  87 S9        29.86S WCI  29
VIROQUA        CLOUDY    33  32  96 S14       29.85S WCI  24
BOSCOBEL       CLOUDY    36  31  82 VRB5      29.91S WCI  32
PRAIRIE DU CHI CLOUDY    35  31  83 SE6       29.89S WCI  30
PLATTEVILLE    CLOUDY    33  33 100 S10       29.91S WCI  25
$$

WIZ056-057-062-063-064-067-068-052200-
SOUTH CENTRAL WISCONSIN

CITY           SKY/WX    TMP DP  RH WIND       PRES   REMARKS
REEDSBURG      CLOUDY    34  32  94 S6        29.90R WCI  29
BARABOO/DELLS  CLOUDY    33  32  94 S13       29.89R WCI  24
LONE ROCK      CLOUDY    34  29  82 S12       29.93R WCI  25
MINERAL POINT  CLOUDY    34  34 100 S13       29.90R FOG     WCI  25
MADISON        CLOUDY    32  30  92 S13       29.93S FOG     WCI  22
MIDDLETON      NOT AVBL
WATERTOWN      CLOUDY    32  32 100 S13       29.95R WCI  22
MONROE         FOG       32  32 100 S14       29.93R VSB 1/4 WCI  22
JANESVILLE     CLOUDY    34  34 100 S5        29.96R FOG     WCI  30
$$

WIZ051-052-058>065-066-070>072-052200-
SOUTHEAST WISCONSIN

CITY           SKY/WX    TMP DP  RH WIND       PRES   REMARKS
MILWAUKEE      CLOUDY    34  31  88 S13       29.98R FOG     WCI  25
WAUKESHA       CLOUDY    30  30 100 S6        29.98R FOG     WCI  24
MILWAUKEE/TIMM CLOUDY    32  28  86 S9        29.98R FOG     WCI  24
RACINE         CLOUDY    33  30  88 SW9       30.01R FOG     WCI  25
BURLINGTON     CLOUDY    32  31  96 S5        29.98R FOG     WCI  27
KENOSHA        CLOUDY    33  31  92 S9        29.98R FOG     WCI  25
FOND DU LAC    CLOUDY    33  29  85 S16       29.94R WCI  23
SHEBOYGAN      CLOUDY    33  31  92 S12       29.94F WCI  24
WEST BEND      CLOUDY    32  32 100 S7        29.96R FOG     WCI  26
JUNEAU         CLOUDY    32  30  94 S14       29.95R WCI  22
$$

LSZ147-162-052200-
LAKE SUPERIOR

STATION/POSITION TIME  TEMP    WIND        PRES    WAVE
                       AIR SEA DIR/SP/G            HT/PER
                 (UTC) (F)     (DEG/KT/KT) (MB)    (FT/S)
DEVILS ISLAND    2100   36      50/ 10/ 11 1009.5F
PORT WING        2040   37      30/ 10/ 11 1008.8R
SAXON HARBOR     2030   39      50/ 11/ 13 1008.1F
$$

LMZ867-665-643>646-052200-
LAKE MICHIGAN

STATION/POSITION TIME  TEMP    WIND        PRES    WAVE
                       AIR SEA DIR/SP/G            HT/PER
                 (UTC) (F)     (DEG/KT/KT) (MB)    (FT/S)
CHAMBERS ISLAND  2040   37     190/ 10/ 14 1012.9R
NORTHPORT PIER   2040   40     200/  3/ 10 1013.2R
SISTER BAY       2038   45     280/  9/ 10   N/A
ALGOMA LAKESHORE 2036          230/ 15/ 18   N/A
KEWAUNEE LAKESHO 2042   36     200/ 10/ 11 1013.2S
SHEBOYGAN LAKESH 2100   34     190/ 14/ 15 1014.6R
PORT WASHINGTON  2030   35     190/ 10/ 13 1015.6S
MILWAUKEE LAKESH 2050   33     190/ 12/ 13   N/A
KENOSHA   LAKESH 2100   33     200/  8/  9 1015.9
$$

TC  - TEMPERATURE IN CELSIUS
VSB - VISIBILITY IN STATUTE MILES
WCI - WIND CHILL INDEX
HX  - HEAT INDEX





USA.gov is the U.S. government's official web portal to all federal, state and local government web resources and services.